SES-3

Last updated on Tue Sep 22 2026 00:03:12 GMT+0000 (Coordinated Universal Time)

1 37748U 11035A 26264.53994425 -.00000105 00000+0 00000+0 0 9995 2 37748 1.5681 81.8509 0002509 112.5497 257.4223 1.00272170 55564
UTC large
Height (km)
Speed (km/s)
/
Latitude / Longitude
Inclination (degrees)
Orbital Period (minutes)
Azimuth
Elevation
Range (km)
Doppler Factor

Next 0 passes for location: London (51.5072 / 0.1276)

No passes found over London.
SES-3